Showing default

OPS 9347 (IDSCS 25), 3290

Orbit data source: Space-Track

OPS 9347 (IDSCS 25), 3290 is a payload satellite owned by SAMSO (US) in GEO that was launched on Thu, 13 Jun 1968 UTC via a TITAN IIIC launch vehicle from the Air Force Eastern Test Range (AFETR). Payload-class satellites include a variety of spacecraft equipped with specific instruments for various scientific and technological missions. These include communications satellites like Starlink; space stations such as the ISS; scientific satellites like the Hubble; Earth observation satellites from companies like Planet Labs, Umbra, and HawkEye 360; GPS; miniature CubeSats for education and research; and military/defense satellites.

Loading next visibility...
Identifier
3290, 1968-050G
Orbit
GEO
Country
Flag of USUS
Related business
Manufacturer
Philco-Ford
Mission
Non-operational spacecraft
Bus & Motor
IDCSP, Unknown motor
Mass
45 kg wet, 45 kg dry
Launch date (UTC)
1968-06-13 (58 years ago)
Launch vehicle
TITAN IIIC
Launch site
Air Force Eastern Test Range (AFETR)
Object type
Payload
Rocket body
Debris
Shape & HBR
Unknown
Radar Cross Section
Medium (>0.1 m² and <1 m²)

Expand to show TLE details & history
Last TLE update: 12 hours ago

TLE from 12 hours ago
0 OPS 9347 (IDSCS 25)
1 03290U 68050G   26034.11365540 -.00000127  00000-0  00000-0 0  9994
2 03290   6.6892  55.3602 0059670 135.3708 256.0797  1.07035756 45708
Epoch: 2026-02-03T02:43Z
TLE epoch observation values (Epoch: 2026-02-03T02:43:39.826Z)
Latitude
3.41608°
Longitude
-88.21269°
Altitude
34,047.97 km
Speed
3.138 km/s
True Right ascension
05h 44m 00s
True Declination
3° 24' 45"
Sunlit
Object was in daylight at epoch
Visualization orbit readout
Latitude
Unknown
Longitude
Unknown
Altitude
Unknown
Speed
Unknown
Apparent Right ascension
Unknown
Apparent Declination
Unknown
Sunlit
N/A
Visualization observer readout
Local Sidereal Time
16:48:23
Azimuth
Unknown
Elevation
Unknown
Doppler factor
Unknown
Orbital elements
Apogee altitude
34,232.963 km
Perigee altitude
33,751.185 km
Semi-major axis
40,370.211 km
Eccentricity
0.00597
Inclination
6.6892°
RAAN
55.3602°
Arg. of periapsis
135.3708°
True anomaly
255.41722°
Mean anomaly
256.0797°
Eccentric anomaly
255.74834°
Mean motion
0.26758 °/min
Orbital period
1,345.4 mins
BSTAR
0
Loading maneuver chart data...
Computing Atmospheric mass density...
Loading historical data...
Loading historical data...
Loading historical data...
Loading historical data...
Loading historical data...
Loading historical data...
Loading historical data...

Documentation

Showing up to 5 results
|